EW6304 Weather Reports


Display with metric or nautical units.
time (UTC)temp
F
wind
direction
speed
MPH
gust
MPH
rain 1hr
in
rain 24hr
in
rain mn
in
humidity
%
barometer
mb
20260906095155 60 254 0.0 1.0 0.00 0.00 0.00 92 1012.7
20260906094701 60 254 0.0 2.0 0.00 0.00 0.00 92 1012.6
20260906094654 60 254 0.0 1.0 0.00 0.00 0.00 92 1012.7
20260906094155 60 254 0.0 2.0 0.00 0.00 0.00 92 1012.7
20260906093153 60 253 0.0 2.0 0.00 0.00 0.00 92 1012.7
20260906092656 60 253 1.0 2.0 0.00 0.00 0.00 92 1012.8
20260906092154 60 255 1.0 3.0 0.00 0.00 0.00 92 1012.7
20260906091655 60 276 1.0 3.0 0.00 0.00 0.00 92 1012.8
20260906091200 61 74 0.0 2.0 0.00 0.00 0.00 92 1012.6
20260906091155 61 74 0.0 2.0 0.00 0.00 0.00 92 1012.7
20260906090153 61 74 1.0 2.0 0.00 0.00 0.00 92 1012.4
20260906085652 61 77 0.0 2.0 0.00 0.00 0.00 92 1012.4
20260906085157 61 77 1.0 2.0 0.00 0.00 0.00 92 1012.4
20260906085152 61 78 0.0 2.0 0.00 0.00 0.00 92 1012.4
20260906084157 61 77 1.0 2.0 0.00 0.00 0.00 92 1012.2
20260906084151 61 77 1.0 2.0 0.00 0.00 0.00 92 1012.3
20260906083151 61 77 0.0 2.0 0.00 0.00 0.00 92 1012.0
20260906082652 61 77 0.0 2.0 0.00 0.00 0.00 93 1012.0
20260906082149 61 77 0.0 2.0 0.00 0.00 0.00 93 1012.1
20260906081651 61 77 0.0 2.0 0.00 0.00 0.00 93 1012.2
20260906081151 61 77 0.0 2.0 0.00 0.00 0.00 93 1012.1
20260906080651 61 78 0.0 2.0 0.00 0.00 0.00 93 1011.9
20260906080149 61 77 0.0 2.0 0.00 0.00 0.00 93 1011.9
20260906075650 61 77 0.0 1.0 0.00 0.00 0.00 93 1011.9
20260906075147 61 78 0.0 1.0 0.00 0.00 0.00 93 1011.8
20260906074647 61 78 0.0 1.0 0.00 0.00 0.00 93 1011.8
20260906074149 61 78 0.0 1.0 0.00 0.00 0.00 93 1011.8
20260906073654 61 77 0.0 1.0 0.00 0.00 0.00 93 1011.9
20260906073650 61 77 0.0 1.0 0.00 0.00 0.00 93 1011.9
20260906072647 61 77 0.0 1.0 0.00 0.00 0.00 93 1011.9
20260906072147 61 77 0.0 1.0 0.00 0.00 0.00 93 1011.9
20260906071648 61 77 0.0 1.0 0.00 0.00 0.00 94 1011.9
20260906071146 61 77 1.0 2.0 0.00 0.00 0.00 94 1012.0
20260906070650 61 77 1.0 2.0 0.00 0.00 0.00 94 1012.0
20260906070646 61 77 1.0 2.0 0.00 0.00 0.00 93 1011.9
20260906065646 61 78 0.0 2.0 0.00 0.00 0.00 94 1011.9
20260906065145 61 77 0.0 2.0 0.00 0.00 0.00 93 1011.9
20260906064645 60 77 0.0 0.0 0.00 0.00 0.00 93 1011.8
20260906064145 60 77 0.0 0.0 0.00 0.00 0.00 93 1011.8
20260906063644 60 77 0.0 1.0 0.00 0.00 0.00 93 1011.8
20260906063145 60 77 0.0 1.0 0.00 0.00 0.00 93 1011.8
20260906062650 60 77 0.0 0.0 0.00 0.00 0.00 92 1011.9
20260906062645 60 77 0.0 0.0 0.00 0.00 0.00 93 1011.9
20260906061643 60 77 0.0 0.0 0.00 0.00 0.00 92 1011.8
20260906061142 60 77 0.0 0.0 0.00 0.00 0.00 92 1011.8
20260906060643 60 77 0.0 0.0 0.00 0.00 0.00 92 1011.8
20260906060141 60 77 0.0 0.0 0.00 0.00 0.00 92 1011.9
20260906055642 60 77 0.0 0.0 0.00 0.00 0.00 92 1011.9
20260906055141 60 77 0.0 0.0 0.00 0.00 0.00 92 1011.9
20260906054641 61 77 0.0 0.0 0.00 0.00 0.00 92 1011.9
20260906054143 61 77 0.0 0.0 0.00 0.00 0.00 92 1012.0
20260906053642 61 77 0.0 0.0 0.00 0.00 0.00 92 1012.0
20260906053140 61 77 0.0 0.0 0.00 0.00 0.00 92 1012.1
20260906052639 61 77 0.0 0.0 0.00 0.00 0.00 92 1012.0
20260906052139 61 77 0.0 1.0 0.00 0.00 0.00 92 1012.0
20260906051640 61 77 0.0 1.0 0.00 0.00 0.00 92 1012.1
20260906051139 61 77 0.0 0.0 0.00 0.00 0.00 92 1012.2
20260906050639 61 77 0.0 0.0 0.00 0.00 0.00 92 1012.2
20260906050139 61 77 0.0 1.0 0.00 0.00 0.00 91 1012.3
20260906045639 61 77 0.0 1.0 0.00 0.00 0.00 91 1012.2
20260906045139 61 77 0.0 0.0 0.00 0.00 0.00 91 1012.2
20260906044641 61 77 0.0 0.0 0.00 0.00 0.00 91 1012.1
20260906044138 61 77 0.0 0.0 0.00 0.00 0.00 91 1012.1
20260906043639 62 77 0.0 0.0 0.00 0.00 0.00 91 1012.1
20260906043137 62 77 0.0 0.0 0.00 0.00 0.00 90 1012.1
20260906042636 62 77 0.0 0.0 0.00 0.00 0.00 90 1012.0
20260906042138 62 77 0.0 0.0 0.00 0.00 0.00 90 1012.0
20260906041638 62 77 0.0 0.0 0.00 0.00 0.00 90 1011.9
20260906041136 62 77 0.0 0.0 0.00 0.00 0.00 90 1011.9
20260906040636 62 77 0.0 0.0 0.00 0.00 0.00 90 1012.0
20260906040135 62 77 0.0 1.0 0.00 0.00 0.00 90 1012.0
20260906035636 62 77 0.0 1.0 0.00 0.00 0.00 90 1011.9
20260906035136 62 77 0.0 0.0 0.00 0.00 0.00 90 1011.8
20260906034636 62 77 0.0 0.0 0.00 0.00 0.00 89 1011.7
20260906034136 62 77 0.0 1.0 0.00 0.00 0.00 90 1011.6
20260906033636 62 77 0.0 1.0 0.00 0.00 0.00 89 1011.7
20260906033135 63 77 0.0 0.0 0.00 0.00 0.00 89 1011.7
20260906032632 63 77 0.0 1.0 0.00 0.00 0.00 89 1011.7
20260906032136 63 77 0.0 1.0 0.00 0.00 0.00 89 1011.7
20260906032131 63 77 0.0 1.0 0.00 0.00 0.00 89 1011.6
20260906031132 63 77 0.0 1.0 0.00 0.00 0.00 89 1011.8
20260906030637 63 77 0.0 1.0 0.00 0.00 0.00 89 1011.8
20260906030632 63 77 0.0 1.0 0.00 0.00 0.00 88 1011.7
20260906025631 63 77 0.0 1.0 0.00 0.00 0.00 89 1011.8
20260906025133 63 77 0.0 1.0 0.00 0.00 0.00 89 1011.8
20260906024630 63 77 0.0 1.0 0.00 0.00 0.00 89 1011.8
20260906024135 63 77 0.0 1.0 0.00 0.00 0.00 89 1011.8
20260906024130 63 77 0.0 1.0 0.00 0.00 0.00 89 1011.8
20260906023128 63 77 0.0 0.0 0.00 0.00 0.00 89 1011.8
20260906022628 63 77 0.0 0.0 0.00 0.00 0.00 89 1011.8
20260906022128 63 77 0.0 0.0 0.00 0.00 0.00 89 1011.8
20260906021626 63 77 0.0 0.0 0.00 0.00 0.00 88 1011.7
20260906021127 63 77 0.0 0.0 0.00 0.00 0.00 88 1011.8
20260906020627 64 77 0.0 0.0 0.00 0.00 0.00 88 1011.7
20260906020128 64 77 0.0 1.0 0.00 0.00 0.00 88 1011.7
20260906015628 64 77 0.0 1.0 0.00 0.00 0.00 88 1011.8
20260906015128 64 77 0.0 1.0 0.00 0.00 0.00 88 1011.8
20260906014626 64 77 0.0 1.0 0.00 0.00 0.00 88 1011.8
20260906014128 64 77 0.0 1.0 0.00 0.00 0.00 88 1011.8
20260906013632 64 77 0.0 1.0 0.00 0.00 0.00 87 1012.0
20260906013626 64 77 0.0 1.0 0.00 0.00 0.00 88 1011.8
20260906012627 64 77 0.0 1.0 0.00 0.00 0.00 87 1011.9
20260906012128 64 77 0.0 1.0 0.00 0.00 0.00 87 1011.8
20260906011627 64 77 0.0 1.0 0.00 0.00 0.00 87 1011.7
20260906011128 64 77 0.0 1.0 0.00 0.00 0.00 87 1011.7
20260906010626 64 77 0.0 1.0 0.00 0.00 0.00 87 1011.7
20260906010128 64 77 0.0 1.0 0.00 0.00 0.00 87 1011.6
20260906005627 64 77 0.0 1.0 0.00 0.00 0.00 87 1011.6
20260906005128 64 77 0.0 2.0 0.00 0.00 0.00 87 1011.7
20260906004626 64 77 1.0 2.0 0.00 0.00 0.00 87 1011.6
20260906004131 63 77 0.0 1.0 0.00 0.00 0.00 88 1011.5
20260906004127 63 77 0.0 2.0 0.00 0.00 0.00 88 1011.6
20260906003128 63 77 0.0 0.0 0.00 0.00 0.00 88 1011.4
20260906002628 63 77 0.0 1.0 0.00 0.00 0.00 88 1011.4
20260906002127 63 77 0.0 1.0 0.00 0.00 0.00 88 1011.3
20260906001626 63 77 0.0 0.0 0.00 0.00 0.00 88 1011.3
20260906001132 63 77 0.0 1.0 0.00 0.00 0.00 88 1011.2
20260906001126 63 77 0.0 0.0 0.00 0.00 0.00 88 1011.3
20260906000128 64 77 0.0 1.0 0.00 0.00 0.00 88 1011.1
20260906000124 64 77 0.0 1.0 0.00 0.00 0.00 88 1011.1
20260905235125 64 77 0.0 0.0 0.00 0.00 0.00 87 1011.2
20260905234624 64 77 0.0 0.0 0.00 0.00 0.00 87 1011.2
20260905234125 64 77 0.0 1.0 0.00 0.00 0.00 87 1011.1
20260905233624 64 77 0.0 1.0 0.00 0.00 0.00 86 1011.1
20260905233125 64 80 0.0 0.0 0.00 0.00 0.00 86 1011.0
20260905232624 64 80 0.0 1.0 0.00 0.00 0.00 86 1011.1
20260905232122 65 80 0.0 1.0 0.00 0.00 0.00 85 1011.1
20260905231623 65 79 0.0 1.0 0.00 0.00 0.00 85 1011.1
20260905231122 65 80 0.0 1.0 0.00 0.00 0.00 85 1011.2
20260905230625 65 80 0.0 1.0 0.00 0.00 0.00 84 1011.0
20260905230123 65 78 0.0 0.0 0.00 0.00 0.00 84 1011.0
20260905225623 65 78 0.0 1.0 0.00 0.00 0.00 83 1010.9
20260905225122 65 78 0.0 1.0 0.00 0.00 0.00 83 1011.0
20260905224623 66 78 0.0 1.0 0.00 0.00 0.00 82 1011.0
20260905224122 66 78 0.0 1.0 0.00 0.00 0.00 82 1011.1
20260905223622 66 78 0.0 1.0 0.00 0.00 0.00 81 1011.1
20260905223121 66 78 0.0 1.0 0.00 0.00 0.00 81 1011.0
20260905222621 66 78 0.0 2.0 0.00 0.00 0.00 80 1011.0
20260905222120 66 77 0.0 2.0 0.00 0.00 0.00 80 1011.1
20260905221628 67 77 1.0 2.0 0.00 0.00 0.00 79 1010.9
20260905221620 67 79 0.0 2.0 0.00 0.00 0.00 79 1011.0
20260905221121 67 78 1.0 2.0 0.00 0.00 0.00 79 1011.0
20260905220126 67 65 1.0 3.0 0.00 0.00 0.00 79 1010.7
20260905220120 67 75 1.0 3.0 0.00 0.00 0.00 80 1010.8
20260905215738 67 32 1.0 2.0 0.00 0.00 0.00 80 1010.6
20260905214619 67 166 1.0 3.0 0.00 0.00 0.00 80 1010.5
20260905214120 67 103 1.0 3.0 0.00 0.00 0.00 80 1010.5
20260905213618 67 98 1.0 3.0 0.00 0.00 0.00 80 1010.5
20260905213119 67 113 2.0 5.0 0.00 0.00 0.00 80 1010.4
20260905212619 67 136 2.0 6.0 0.00 0.00 0.00 80 1010.5
20260905212125 67 123 2.0 6.0 0.00 0.00 0.00 79 1010.4
20260905212119 67 123 2.0 7.0 0.00 0.00 0.00 80 1010.4
20260905211619 67 105 2.0 7.0 0.00 0.00 0.00 80 1010.4
20260905210618 68 301 2.0 6.0 0.00 0.00 0.00 79 1010.3
20260905210119 68 94 2.0 6.0 0.00 0.00 0.00 79 1010.3
20260905205616 68 78 2.0 5.0 0.00 0.00 0.00 79 1010.2
20260905205119 68 274 2.0 6.0 0.00 0.00 0.00 79 1010.1
20260905204618 68 96 2.0 6.0 0.00 0.00 0.00 80 1010.1
20260905204116 68 67 2.0 7.0 0.00 0.00 0.00 80 1010.1
20260905203614 68 116 2.0 7.0 0.00 0.00 0.00 80 1010.1
20260905203115 68 118 2.0 7.0 0.00 0.00 0.00 80 1010.0
20260905202614 68 82 2.0 6.0 0.00 0.00 0.00 79 1009.8
20260905202117 68 76 2.0 6.0 0.00 0.00 0.00 79 1009.8
20260905201620 69 77 1.0 4.0 0.00 0.00 0.00 79 1009.7
20260905201615 69 119 2.0 4.0 0.00 0.00 0.00 79 1009.8
20260905200618 69 205 2.0 5.0 0.00 0.00 0.00 78 1009.6
20260905200613 69 208 2.0 5.0 0.00 0.00 0.00 79 1009.6
20260905195621 69 45 2.0 8.0 0.00 0.00 0.00 79 1009.5
20260905195611 69 88 2.0 8.0 0.00 0.00 0.00 78 1009.6
20260905195114 69 116 2.0 8.0 0.00 0.00 0.00 78 1009.5
20260905194109 69 122 2.0 8.0 0.00 0.00 0.00 79 1009.5
20260905193611 69 67 2.0 7.0 0.00 0.00 0.00 79 1009.7
20260905193115 69 117 2.0 7.0 0.00 0.00 0.00 79 1009.6
20260905193111 69 94 2.0 7.0 0.00 0.00 0.00 79 1009.6
20260905192110 69 94 3.0 9.0 0.00 0.00 0.00 80 1009.7
20260905191608 69 71 3.0 9.0 0.00 0.00 0.00 78 1009.7
20260905191113 69 117 2.0 7.0 0.00 0.00 0.00 78 1009.8
20260905191108 69 84 2.0 8.0 0.00 0.00 0.00 79 1009.8
20260905190110 70 80 2.0 8.0 0.00 0.00 0.00 79 1009.8
20260905190104 70 127 2.0 8.0 0.00 0.00 0.00 79 1009.8
20260905185723 70 76 2.0 6.0 0.00 0.00 0.00 80 1009.7
20260905184608 71 259 2.0 5.0 0.00 0.00 0.00 77 1009.8
20260905184601 70 66 2.0 6.0 0.00 0.00 0.00 77 1009.7
20260905183602 72 211 2.0 4.0 0.00 0.00 0.00 76 1009.8
20260905183107 71 128 2.0 8.0 0.00 0.00 0.00 78 1009.7
20260905183102 72 79 2.0 6.0 0.00 0.00 0.00 77 1009.6
20260905182101 71 242 2.0 8.0 0.00 0.00 0.00 78 1009.9
20260905181603 70 306 2.0 5.0 0.00 0.00 0.00 80 1009.8
20260905181103 70 280 2.0 10.0 0.00 0.00 0.00 79 1009.8
20260905180602 70 255 2.0 10.0 0.00 0.00 0.00 78 1009.8
20260905180103 71 92 3.0 8.0 0.00 0.00 0.00 77 1009.8
20260905175606 72 119 3.0 8.0 0.00 0.00 0.00 76 1009.5
20260905175601 71 134 3.0 8.0 0.00 0.00 0.00 77 1009.6
20260905174601 72 267 3.0 7.0 0.00 0.00 0.00 78 1009.5
20260905174102 71 117 3.0 10.0 0.00 0.00 0.00 77 1009.5
20260905173608 71 111 3.0 10.0 0.00 0.00 0.00 78 1009.4
20260905173603 71 264 2.0 10.0 0.00 0.00 0.00 77 1009.6
20260905172601 71 98 2.0 10.0 0.00 0.00 0.00 78 1009.4
20260905172108 70 69 2.0 7.0 0.00 0.00 0.00 78 1009.4
20260905172104 71 107 2.0 5.0 0.00 0.00 0.00 79 1009.4
20260905171104 70 98 2.0 9.0 0.00 0.00 0.00 78 1009.4
20260905171058 70 206 2.0 8.0 0.00 0.00 0.00 78 1009.5
20260905170059 70 67 2.0 9.0 0.00 0.00 0.00 80 1009.4
20260905165558 70 106 2.0 5.0 0.00 0.00 0.00 79 1009.3
20260905165057 70 100 1.0 4.0 0.00 0.00 0.00 79 1009.3
20260905164556 70 78 1.0 4.0 0.00 0.00 0.00 79 1009.3
20260905164052 70 279 2.0 4.0 0.00 0.00 0.00 79 1009.2
20260905163553 70 127 2.0 7.0 0.00 0.00 0.00 79 1009.1
20260905163215 70 117 2.0 9.0 0.00 0.00 0.00 81 1009.2
20260905163054 70 92 1.0 4.0 0.00 0.00 0.00 80 1009.1
20260905163050 70 121 2.0 7.0 0.00 0.00 0.00 79 1009.1
20260905162709 70 269 1.0 3.0 0.00 0.00 0.00 81 1009.2
20260905161051 69 75 2.0 9.0 0.00 0.00 0.00 81 1009.2
20260905160549 69 96 2.0 6.0 0.00 0.00 0.00 81 1009.1
20260905160050 69 126 1.0 6.0 0.00 0.00 0.00 81 1009.2
20260905155552 69 227 2.0 4.0 0.00 0.00 0.00 81 1009.2
20260905155048 70 283 2.0 6.0 0.00 0.00 0.00 81 1009.2
20260905154547 70 123 1.0 6.0 0.00 0.00 0.00 80 1009.3
20260905154047 70 117 1.0 5.0 0.00 0.00 0.00 79 1009.2
20260905153548 71 125 2.0 14.0 0.00 0.00 0.00 78 1009.1
20260905153048 71 61 2.0 14.0 0.00 0.00 0.00 76 1009.1
20260905152551 71 122 2.0 10.0 0.00 0.00 0.00 76 1008.9
20260905152546 71 275 2.0 5.0 0.00 0.00 0.00 76 1009.0
20260905151546 71 286 3.0 10.0 0.00 0.00 0.00 77 1009.0
20260905151051 71 269 2.0 8.0 0.00 0.00 0.00 78 1009.0
20260905151045 71 267 3.0 8.0 0.00 0.00 0.00 77 1009.0
20260905150546 71 290 3.0 8.0 0.00 0.00 0.00 77 1008.9
20260905145552 71 128 2.0 6.0 0.00 0.00 0.00 76 1008.8
20260905145546 71 284 2.0 6.0 0.00 0.00 0.00 77 1008.9
20260905144545 71 294 2.0 8.0 0.00 0.00 0.00 76 1008.8
20260905144046 71 237 2.0 8.0 0.00 0.00 0.00 76 1008.8
20260905143700 71 248 2.0 7.0 0.00 0.00 0.00 76 1008.6
20260905143550 71 225 2.0 7.0 0.00 0.00 0.00 77 1008.7
20260905143544 71 286 2.0 7.0 0.00 0.00 0.00 77 1008.8
20260905142706 71 109 2.0 9.0 0.00 0.00 0.00 77 1008.7
20260905142044 71 107 2.0 6.0 0.00 0.00 0.00 77 1008.7
20260905141044 71 248 2.0 9.0 0.00 0.00 0.00 77 1008.7
20260905140548 71 108 2.0 5.0 0.00 0.00 0.00 78 1008.9
20260905140544 71 273 2.0 5.0 0.00 0.00 0.00 77 1008.8
20260905135542 71 242 2.0 6.0 0.00 0.00 0.00 77 1008.9
20260905135044 71 244 2.0 6.0 0.00 0.00 0.00 77 1009.0
20260905134543 71 276 1.0 7.0 0.00 0.00 0.00 79 1009.0
20260905134050 70 309 3.0 8.0 0.00 0.00 0.00 79 1008.9
20260905134044 71 256 3.0 8.0 0.00 0.00 0.00 79 1009.0
20260905133042 70 102 2.0 5.0 0.00 0.00 0.00 80 1008.9
20260905132702 70 146 2.0 6.0 0.00 0.00 0.00 80 1008.6
20260905132548 70 261 2.0 7.0 0.00 0.00 0.00 79 1008.8
20260905132542 70 221 2.0 7.0 0.00 0.00 0.00 79 1008.8
20260905131647 70 254 1.0 5.0 0.00 0.00 0.00 80 1008.7
20260905130546 70 121 2.0 6.0 0.00 0.00 0.00 79 1008.6
20260905130039 70 250 2.0 4.0 0.00 0.00 0.00 79 1008.6
20260905125540 70 112 2.0 6.0 0.00 0.00 0.00 80 1008.5
20260905125039 69 57 2.0 7.0 0.00 0.00 0.00 80 1008.5
20260905124540 69 127 2.0 7.0 0.00 0.00 0.00 81 1008.5
20260905124039 69 254 2.0 6.0 0.00 0.00 0.00 81 1008.4
20260905123540 69 308 1.0 5.0 0.00 0.00 0.00 82 1008.4
20260905123036 69 261 1.0 3.0 0.00 0.00 0.00 82 1008.4
20260905122537 69 288 2.0 5.0 0.00 0.00 0.00 82 1008.3
20260905122038 68 302 2.0 6.0 0.00 0.00 0.00 82 1008.3
20260905121538 68 270 2.0 6.0 0.00 0.00 0.00 83 1008.3
20260905121040 67 302 2.0 6.0 0.00 0.00 0.00 84 1008.2
20260905121035 67 306 3.0 6.0 0.00 0.00 0.00 84 1008.2
20260905120036 67 288 2.0 5.0 0.00 0.00 0.00 85 1008.2
20260905115535 66 296 2.0 4.0 0.00 0.00 0.00 86 1008.1
20260905115033 66 276 2.0 4.0 0.00 0.00 0.00 86 1008.1
20260905114534 65 295 2.0 4.0 0.00 0.00 0.00 87 1008.1
20260905114038 65 280 1.0 3.0 0.00 0.00 0.00 88 1008.1
20260905114032 65 281 1.0 3.0 0.00 0.00 0.00 87 1008.2
20260905113032 64 288 1.0 3.0 0.00 0.00 0.00 88 1008.1
20260905112532 64 266 1.0 3.0 0.00 0.00 0.00 89 1008.1
20260905112033 64 266 1.0 3.0 0.00 0.00 0.00 89 1008.0
20260905111533 63 278 0.0 2.0 0.00 0.00 0.00 89 1008.0
20260905111033 63 278 1.0 2.0 0.00 0.00 0.00 89 1007.9
20260905110538 63 288 1.0 2.0 0.00 0.00 0.00 89 1007.6
20260905110532 63 278 1.0 2.0 0.00 0.00 0.00 89 1007.8
20260905105539 63 286 1.0 3.0 0.00 0.00 0.00 89 1007.6
20260905105534 63 287 1.0 3.0 0.00 0.00 0.00 89 1007.6
20260905104533 63 286 1.0 3.0 0.00 0.00 0.00 89 1007.5
20260905104033 63 306 1.0 3.0 0.00 0.00 0.00 89 1007.5
20260905103532 63 296 1.0 3.0 0.00 0.00 0.00 88 1007.5
20260905103033 63 293 1.0 3.0 0.00 0.00 0.00 88 1007.5
20260905102532 63 296 1.0 3.0 0.00 0.00 0.00 88 1007.5
20260905102032 63 296 1.0 3.0 0.00 0.00 0.00 88 1007.5
20260905101533 63 277 1.0 2.0 0.00 0.00 0.00 88 1007.5
20260905101033 63 277 1.0 2.0 0.00 0.00 0.00 88 1007.5
20260905100531 63 277 1.0 2.0 0.00 0.00 0.00 88 1007.5
20260905100033 63 276 1.0 3.0 0.00 0.00 0.00 88 1007.5